| time (UTC) | temp F | wind direction | speed MPH | gust MPH | rain 1hr in | rain 24hr in | rain mn in | humidity % | barometer mb |
| 20260903050027 | 0 | 0.0 | 0.0 | 0.00 | 0.00 | 0.00 | 1003.5 | ||
| 20260903043038 | 0 | 0.0 | 0.0 | 0.00 | 0.00 | 0.00 | 1003.5 | ||
| 20260903041517 | 0 | 0.0 | 0.0 | 0.00 | 0.00 | 0.00 | 1003.5 | ||
| 20260903040041 | 0 | 0.0 | 0.0 | 0.00 | 0.00 | 0.00 | 1003.6 | ||
| 20260903034600 | 0 | 0.0 | 0.0 | 0.00 | 0.00 | 0.00 | 1003.5 | ||
| 20260903031520 | 0 | 0.0 | 0.0 | 0.00 | 0.00 | 0.00 | 1003.2 | ||
| 20260903030052 | 0 | 0.0 | 0.0 | 0.00 | 0.00 | 0.00 | 1003.2 | ||
| 20260903024537 | 0 | 0.0 | 0.0 | 0.00 | 0.00 | 0.00 | 1003.2 | ||
| 20260903023032 | 0 | 0.0 | 0.0 | 0.00 | 0.00 | 0.00 | 1003.2 | ||
| 20260903021533 | 0 | 0.0 | 0.0 | 0.00 | 0.00 | 0.00 | 1003.1 | ||
| 20260903020023 | 0 | 0.0 | 0.0 | 0.00 | 0.00 | 0.00 | 1003.0 | ||
| 20260903013014 | 0 | 280 | 0.0 | 0.0 | 0.00 | 0.00 | 0.00 | 1003.0 | |
| 20260903010059 | 0 | 280 | 0.0 | 0.0 | 0.00 | 0.00 | 0.00 | 1003.0 | |
| 20260903010023 | 0 | 280 | 0.0 | 0.0 | 0.00 | 0.00 | 0.00 | 1003.0 | |
| 20260903004547 | 0 | 280 | 0.0 | 0.0 | 0.00 | 0.00 | 0.00 | 1002.8 | |
| 20260903003006 | 0 | 280 | 0.0 | 0.0 | 0.00 | 0.00 | 0.00 | 1002.6 | |
| 20260903001556 | 0 | 265 | 0.0 | 0.0 | 0.00 | 0.00 | 0.00 | 1002.6 | |
| 20260903001512 | 0 | 266 | 0.0 | 0.0 | 0.00 | 0.00 | 0.00 | 1002.6 | |
| 20260903000013 | 0 | 266 | 0.0 | 0.0 | 0.00 | 0.00 | 0.00 | 1002.6 | |
| 20260902234531 | 0 | 267 | 0.0 | 0.0 | 0.00 | 0.00 | 0.00 | 1002.5 | |
| 20260902233028 | 0 | 266 | 0.0 | 0.0 | 0.00 | 0.00 | 0.00 | 1002.7 | |
| 20260902231535 | 0 | 266 | 0.0 | 0.0 | 0.00 | 0.00 | 0.00 | 1002.8 | |
| 20260902230004 | 0 | 265 | 0.0 | 0.0 | 0.00 | 0.00 | 0.00 | 1002.8 | |
| 20260902224601 | 0 | 271 | 0.0 | 0.0 | 0.00 | 0.00 | 0.00 | 1002.6 | |
| 20260902224501 | 0 | 273 | 0.0 | 0.0 | 0.00 | 0.00 | 0.00 | 1002.6 | |
| 20260902223011 | 0 | 272 | 0.0 | 0.0 | 0.00 | 0.00 | 0.00 | 1002.5 | |
| 20260902221538 | 0 | 283 | 0.0 | 0.0 | 0.00 | 0.00 | 0.00 | 1002.4 | |
| 20260902220014 | 0 | 266 | 0.0 | 0.0 | 0.00 | 0.00 | 0.00 | 1002.2 | |
| 20260902214538 | 0 | 268 | 0.0 | 0.0 | 0.00 | 0.00 | 0.00 | 1002.2 | |
| 20260902213033 | 0 | 271 | 0.0 | 0.0 | 0.00 | 0.00 | 0.00 | 1002.3 | |
| 20260902211556 | 0 | 268 | 0.0 | 0.0 | 0.00 | 0.00 | 0.00 | 1002.3 | |
| 20260902210055 | 0 | 272 | 0.0 | 0.0 | 0.00 | 0.00 | 0.00 | 1002.4 | |
| 20260902204533 | 0 | 273 | 0.0 | 0.0 | 0.00 | 0.00 | 0.00 | 1002.4 | |
| 20260902203027 | 0 | 274 | 0.0 | 0.0 | 0.00 | 0.00 | 0.00 | 1002.2 | |
| 20260902201550 | 0 | 278 | 0.0 | 0.0 | 0.00 | 0.00 | 0.00 | 1002.2 | |
| 20260902200050 | 0 | 279 | 0.0 | 0.0 | 0.00 | 0.00 | 0.00 | 1002.1 | |
| 20260902194542 | 0 | 278 | 0.0 | 0.0 | 0.00 | 0.00 | 0.00 | 1002.2 | |
| 20260902193046 | 0 | 278 | 0.0 | 0.0 | 0.00 | 0.00 | 0.00 | 1002.3 | |
| 20260902191524 | 0 | 279 | 0.0 | 0.0 | 0.00 | 0.00 | 0.00 | 1002.1 | |
| 20260902190106 | 0 | 279 | 0.0 | 0.0 | 0.00 | 0.00 | 0.00 | 1002.1 | |
| 20260902184618 | 0 | 277 | 0.0 | 0.0 | 0.00 | 0.00 | 0.00 | 1002.1 | |
| 20260902183011 | 0 | 278 | 0.0 | 0.0 | 0.00 | 0.00 | 0.00 | 1001.9 | |
| 20260902181506 | 0 | 280 | 0.0 | 0.0 | 0.00 | 0.00 | 0.00 | 1002.0 | |
| 20260902180022 | 0 | 280 | 0.0 | 0.0 | 0.00 | 0.00 | 0.00 | 1002.0 | |
| 20260902174545 | 0 | 278 | 0.0 | 0.0 | 0.00 | 0.00 | 0.00 | 1002.0 | |
| 20260902173023 | 0 | 271 | 0.0 | 0.0 | 0.00 | 0.00 | 0.00 | 1001.9 | |
| 20260902171501 | 0 | 272 | 0.0 | 0.0 | 0.00 | 0.00 | 0.00 | 1001.9 | |
| 20260902170024 | 0 | 266 | 0.0 | 0.0 | 0.00 | 0.00 | 0.00 | 1001.8 | |
| 20260902164509 | 0 | 266 | 0.0 | 0.0 | 0.00 | 0.00 | 0.00 | 1002.0 | |
| 20260902163053 | 0 | 268 | 0.0 | 0.0 | 0.00 | 0.00 | 0.00 | 1001.9 | |
| 20260902161523 | 0 | 268 | 0.0 | 0.0 | 0.00 | 0.00 | 0.00 | 1001.9 | |
| 20260902160032 | 0 | 268 | 0.0 | 0.0 | 0.00 | 0.00 | 0.00 | 1002.0 | |
| 20260902154515 | 0 | 264 | 0.0 | 0.0 | 0.00 | 0.00 | 0.00 | 1002.0 | |
| 20260902153039 | 0 | 265 | 0.0 | 0.0 | 0.00 | 0.00 | 0.00 | 1002.1 | |
| 20260902151532 | 0 | 266 | 0.0 | 0.0 | 0.00 | 0.00 | 0.00 | 1002.1 | |
| 20260902150014 | 0 | 264 | 0.0 | 0.0 | 0.00 | 0.00 | 0.00 | 1001.9 | |
| 20260902144530 | 0 | 265 | 0.0 | 0.0 | 0.00 | 0.00 | 0.00 | 1002.1 | |
| 20260902143004 | 0 | 261 | 0.0 | 0.0 | 0.00 | 0.00 | 0.00 | 1002.1 | |
| 20260902141502 | 0 | 264 | 0.0 | 0.0 | 0.00 | 0.00 | 0.00 | 1002.0 | |
| 20260902140058 | 0 | 264 | 0.0 | 0.0 | 0.00 | 0.00 | 0.00 | 1002.0 | |
| 20260902134605 | 0 | 258 | 0.0 | 0.0 | 0.00 | 0.00 | 0.00 | 1001.9 | |
| 20260902133055 | 0 | 254 | 0.0 | 0.0 | 0.00 | 0.00 | 0.00 | 1002.0 | |
| 20260902131526 | 0 | 252 | 0.0 | 0.0 | 0.00 | 0.00 | 0.00 | 1002.0 | |
| 20260902130035 | 0 | 245 | 0.0 | 0.0 | 0.00 | 0.00 | 0.00 | 1002.0 | |
| 20260902124535 | 0 | 241 | 0.0 | 0.0 | 0.00 | 0.00 | 0.00 | 1002.1 | |
| 20260902123027 | 0 | 239 | 0.0 | 0.0 | 0.00 | 0.00 | 0.00 | 1002.0 | |
| 20260902121534 | 0 | 243 | 0.0 | 0.0 | 0.00 | 0.00 | 0.00 | 1002.2 | |
| 20260902120031 | 0 | 241 | 0.0 | 0.0 | 0.00 | 0.00 | 0.00 | 1002.2 | |
| 20260902114505 | 0 | 241 | 0.0 | 0.0 | 0.00 | 0.00 | 0.00 | 1002.3 | |
| 20260902113040 | 0 | 242 | 0.0 | 0.0 | 0.00 | 0.00 | 0.00 | 1002.4 | |
| 20260902111520 | 0 | 242 | 0.0 | 0.0 | 0.00 | 0.00 | 0.00 | 1002.6 | |
| 20260902110040 | 0 | 242 | 0.0 | 0.0 | 0.00 | 0.00 | 0.00 | 1002.8 | |
| 20260902104534 | 0 | 240 | 0.0 | 0.0 | 0.00 | 0.00 | 0.00 | 1003.1 | |
| 20260902103042 | 0 | 241 | 0.0 | 0.0 | 0.00 | 0.00 | 0.00 | 1003.2 | |
| 20260902101538 | 0 | 240 | 0.0 | 0.0 | 0.00 | 0.00 | 0.00 | 1003.5 | |
| 20260902094529 | 0 | 238 | 0.0 | 0.0 | 0.00 | 0.00 | 0.00 | 1003.9 | |
| 20260902093022 | 0 | 237 | 0.0 | 0.0 | 0.00 | 0.00 | 0.00 | 1004.0 | |
| 20260902091542 | 0 | 238 | 0.0 | 0.0 | 0.00 | 0.00 | 0.00 | 1004.2 | |
| 20260902090104 | 0 | 235 | 0.0 | 0.0 | 0.00 | 0.00 | 0.00 | 1004.3 | |
| 20260902084543 | 0 | 242 | 0.0 | 0.0 | 0.00 | 0.00 | 0.00 | 1004.5 | |
| 20260902083034 | 0 | 242 | 0.0 | 0.0 | 0.00 | 0.00 | 0.00 | 1004.7 | |
| 20260902081534 | 0 | 243 | 0.0 | 0.0 | 0.00 | 0.00 | 0.00 | 1004.7 | |
| 20260902080030 | 0 | 242 | 0.0 | 0.0 | 0.00 | 0.00 | 0.00 | 1004.9 | |
| 20260902074528 | 0 | 241 | 0.0 | 0.0 | 0.00 | 0.00 | 0.00 | 1004.9 | |
| 20260902073036 | 0 | 242 | 0.0 | 0.0 | 0.00 | 0.00 | 0.00 | 1005.0 | |
| 20260902071545 | 0 | 242 | 0.0 | 0.0 | 0.00 | 0.00 | 0.00 | 1005.1 | |
| 20260902070010 | 0 | 240 | 0.0 | 0.0 | 0.00 | 0.00 | 0.00 | 1005.3 | |
| 20260902064513 | 0 | 0.0 | 0.0 | 0.00 | 0.00 | 0.00 | 1005.3 | ||
| 20260902063009 | 0 | 0.0 | 0.0 | 0.00 | 0.00 | 0.00 | 1005.5 | ||
| 20260902061605 | 0 | 0.0 | 0.0 | 0.00 | 0.00 | 0.00 | 1005.5 | ||
| 20260902060022 | 0 | 0.0 | 0.0 | 0.00 | 0.00 | 0.00 | 1005.4 | ||
| 20260902053028 | 0 | 0.0 | 0.0 | 0.00 | 0.00 | 0.00 | 1005.7 | ||
| 20260902051529 | 0 | 0.0 | 0.0 | 0.00 | 0.00 | 0.00 | 1005.9 |